Погода в Воронине

Россия / Томская область     56°33′23″N   85°15′15″E
темп.,
°C
ветер,
м/с
пор.,
м/с
влажн.,
%
обл.,
%
осадки,
мм/ч
давл.,
гПа
погр.,
м
4 марта, чт
чт401:00−13ю499596 0.1 1020330
04:00−14ююз5139398 0.0 1020454
07:00−14ююз6159099 0.1 1020534
10:00−12ю61492100 0.1 1019594
13:00−8ююз71492100 0.7 1018753
16:00−6ююз71493100 0.9 1016830
19:00−5ююз61494100 1.8 1015810
22:00−5ююз61493100 0.9 1014861
5 марта, пт
пт501:00−5ююз61393100 1.4 1013766
04:00−7ююз61489100 0.1 1011655
07:00−7ююз61491100 0.3 1011627
10:00−6ююз61482100 0.1 1010762
13:00−5ююз71393100 0.5 1009846
16:00−3юз71393100 0.9 1007990
19:00−3зюз71481100 1.6 10111180
22:00−7юз61588100 0.0 1014779
6 марта, сб
сб601:00−6юз71493100 0.4 10141224
04:00−5юз61493100 1.1 10121124
07:00−5юз61394100 2.4 10131043
10:00−5юз71493100 1.3 1012937
13:00−5ююз71393100 2.7 1011957
16:00−5юз71393100 1.3 10101089
19:00−5юз61392100 2.0 10101047
22:00−5юз71492100 0.4 10081023
7 марта, вс
вс701:00−3юз71592100 0.9 10091296
04:00−6зюз5148399 0.5 1010948
07:00−10зюз4128769 0.5 1013415
10:00−10зюз511894 0.0 1014458
13:00−7зюз488452 0.0 1016495
16:00−6юз378287 0.0 1016561
19:00−7юв249394 0.0 1015152
22:00−2ююз51196100 1.1 1012938
8 марта, пн
пн801:00−2ююз61395100 2.4 1010913
04:00−2ююз61495100 1.0 1008826
07:00−2юз71490100 1.3 1008981
10:00−3ююз71495100 0.6 1007723
13:00−2ююз61296100 1.8 1007739
16:00−1юз5997100 2.5 1008700
19:00−2юз4997100 4.4 1008612
22:00−5ссз3796100 1.7 1010369